This is the latest recevied weather packets stored in our database for station/object KC3DGM. If no packets are shown the sender has not sent any weather packets the latest 10 day(s).
| Time | Temp. | Humidity | Pressure | Rain* | Wind** | Luminosity | Snow |
|---|---|---|---|---|---|---|---|
| 1778068580 | 8.33° C | 99% | 979.7 hPa | 0 mm | - | 11 W/m² | - |
| 1778068278 | 8.33° C | 99% | 979.6 hPa | 0 mm | - | 10 W/m² | - |
| 1778067975 | 8.33° C | 99% | 979.8 hPa | 0 mm | - | 6 W/m² | - |
| 1778067673 | 7.78° C | 99% | 979.3 hPa | 0 mm | - | 5 W/m² | - |
| 1778067371 | 7.78° C | 99% | 979.3 hPa | 0 mm | - | 6 W/m² | - |
| 1778067068 | 7.78° C | 99% | 979.2 hPa | 1.78 mm | - | 7 W/m² | - |
| 1778066764 | 7.78° C | 99% | 978.7 hPa | 1.78 mm | - | 15 W/m² | - |
| 1778066462 | 7.78° C | 99% | 978.4 hPa | 0 mm | - | 14 W/m² | - |
| 1778066159 | 8.33° C | 99% | 978.4 hPa | 0 mm | - | 15 W/m² | - |
| 1778065856 | 8.33° C | 99% | 978.5 hPa | 0 mm | - | 8 W/m² | - |
| 1778065554 | 8.33° C | 99% | 978.4 hPa | 1.27 mm | - | 12 W/m² | - |
| 1778065251 | 8.33° C | 99% | 978.8 hPa | 1.27 mm | - | 3 W/m² | - |
| 1778064947 | 8.33° C | 99% | 978.7 hPa | 1.78 mm | - | 1 W/m² | - |
| 1778064644 | 8.33° C | 99% | 978.8 hPa | 3.05 mm | - | 0 W/m² | - |
| 1778064343 | 8.33° C | 99% | 979 hPa | 3.05 mm | - | 0 W/m² | - |
| 1778064040 | 8.33° C | 99% | 978.7 hPa | 3.56 mm | - | 0 W/m² | - |
| 1778063737 | 8.33° C | 99% | 978.9 hPa | 4.83 mm | - | 0 W/m² | - |
| 1778063433 | 8.33° C | 99% | 978.4 hPa | 4.32 mm | - | 0 W/m² | - |
| 1778063132 | 8.33° C | 99% | 978.8 hPa | 4.32 mm | - | 0 W/m² | - |
| 1778062829 | 8.33° C | 99% | 978.6 hPa | 4.83 mm | - | 0 W/m² | - |
| 1778062526 | 8.33° C | 99% | 979 hPa | 3.05 mm | - | 0 W/m² | - |
| 1778062223 | 8.33° C | 99% | 978.8 hPa | 3.05 mm | - | 0 W/m² | - |
| 1778061921 | 8.33° C | 99% | 978.7 hPa | 1.78 mm | - | 0 W/m² | - |
| 1778061619 | 8.33° C | 99% | 978.4 hPa | 1.27 mm | - | 0 W/m² | - |
| 1778061317 | 8.33° C | 99% | 978.2 hPa | 1.27 mm | - | 0 W/m² | - |
* Rain latest hour (hover to see other rain measurements)
** Current wind speed in m/s (hover to see current wind gust speed)